{"data":{"norad_id":47911,"intl_designator":"2021-021BD","name":"STARLINK-2371","alt_names":[],"object_type":"PAYLOAD","status":"ACTIVE","operator":null,"country":"US","launch_date":"2021-03-14","launch_site_code":"AFETR","launch_vehicle":null,"mission":null,"orbit_class":"UNKNOWN","rcs_meters":null,"size_class":null,"mass_kg":null,"dimensions":null,"purposes":["comms"],"wikipedia_slug":null,"has_3d_model":false,"image_url":null,"decayed_at":null,"tle_current":{"epoch":"2026-05-25T01:58:25.410720Z","epoch_age_seconds":71533,"freshness":"FRESH","line1":"1 47911U 21021BD  26145.08223855  .00003095  00000+0  11143-3 0  9998","line2":"2 47911  53.1590 285.6812 0001300  83.2371 276.8778 15.31711083287616","mean_motion":15.31711083,"eccentricity":0.00013,"inclination_deg":53.159,"raan_deg":285.6812,"arg_perigee_deg":83.2371,"mean_anomaly_deg":276.8778,"bstar":0.00011143,"rev_number":28761,"period_min":94.01250770998,"perigee_km":469.81660786409,"apogee_km":471.59730729305,"semimajor_km":6848.8439575786,"source":"CELESTRAK","updated_at":"2026-05-25T13:38:16.637557Z"}}}